Location: *
(1.3500°S, 147.5000°W)
Time: 13:03:30
(UTC+00:00)

ISS - Pass Details

Date: 18 June 2021
Orbit: 419 x 421 km, 51.6° (Epoch: 27 July)

Event Time Altitude Azimuth Distance (km) Brightness Sun altitude
Exits shadow 13:41:03 13° 86° (E) 1,299 -0.6 -30.2°
Drops below altitude 10° 13:41:44 10° 77° (ENE) 1,489 -0.1 -30.0°
Sets 13:44:12 0° 59° (ENE) 2,349 1.3 -29.5°
